{"data":{"norad_id":60728,"epoch":"2026-09-21T21:32:40.021152Z","epoch_age_seconds":67665,"freshness":"FRESH","line1":"1 60728U 24152J   26264.89768543  .00002122  00000+0  22380-4 0  9992","line2":"2 60728  53.1592 228.8826 0001076  81.3087 278.8052 15.69697758119654","mean_motion":15.69697758,"eccentricity":0.0001076,"inclination_deg":53.1592,"raan_deg":228.8826,"arg_perigee_deg":81.3087,"mean_anomaly_deg":278.8052,"bstar":2.238e-5,"rev_number":11965,"period_min":91.737405666856,"perigee_km":359.03678465646,"apogee_km":360.48678047447,"semimajor_km":6737.8987825655,"source":"CELESTRAK","updated_at":"2026-09-22T09:00:49.278723Z"}}